Regional Weather Roundup
Issued by NWS New Orleans/Baton Rouge, LA

Home | Current Version | Previous Version | Graphics & Text | Print | Product List | Glossary On
Versions: 1 2 3 4 5 6 7 8 9 10 11 12 13 14 15 16 17 18 19 20 21 22 23 24 25 26 27 28 29 30 31 32 33 34 35 36 37 38 39 40 41 42 43 44 45 46 47 48 49 50
168
ASUS44 KLIX 290501
RWRLIX
NEW ORLEANS REGIONAL WEATHER ROUNDUP
NATIONAL WEATHER SERVICE NEW ORLEANS LA
1100 PM CST FRI NOV 28 2014

NOTE: "FAIR" INDICATES FEW OR NO CLOUDS BELOW 12,000 FEET WITH NO
      SIGNIFICANT WEATHER AND/OR OBSTRUCTIONS TO VISIBILITY.
      SKY/WX - SKY CONDITION AND SIGNIFICANT WEATHER.
      TMP - AIR TEMPERATURE.     DP    - DEWPOINT TEMPERATURE.
      RH  - RELATIVE HUMIDITY.   PRES  - PRESSURE.
      HI  - HEAT INDEX.          WCI   - WIND CHILL INDEX.

*  THESE STATIONS ARE NOT NWS OR FAA STATIONS AND ARE NOT UNDER
   NWS QUALITY CONTROL.

LAZ038-040-048-061>063-065>067-069-290600-
SOUTHEAST LOUISIANA

CITY           SKY/WX    TMP DP  RH WIND       PRES   REMARKS
N.O. AUDUBON     N/A     50  47  91 MISG        N/A
N.O. INTL ARPT CLEAR     50  45  83 SE7       30.25F
N.O. LAKEFRONT CLEAR     50  45  83 SE9       30.26F
N.O. DOWNTOWN*   N/A     52  43  71 S6        30.26F
SLIDELL        CLEAR     38  34  85 CALM      30.26F
BATON ROUGE    CLEAR     47  42  83 E6        30.24S
BOOTHVILLE     CLEAR     53  50  89 SE5       30.27F
BELLE CHASSE   PTCLDY    41  36  82 CALM      30.26F
BOGALUSA*        N/A     40  37  89 CALM      30.27F
NEW ROADS*     NOT AVBL
GONZALES*      NOT AVBL
HAMMOND*       NOT AVBL
HOUMA*         CLEAR     46  46  99 CALM      30.25F FOG
PORT FOURCHON* MOCLDY    63  55  77 SE7       30.28F

$$

MSZ070-080>082-290600-
SOUTHERN MISSISSIPPI

CITY           SKY/WX    TMP DP  RH WIND       PRES   REMARKS
MCCOMB         CLEAR     43  38  82 SE3       30.25S
GULFPORT       CLEAR     39  36  89 CALM      30.26F
BILOXI         CLEAR     44  44  97 CALM      30.26F
PASCAGOULA     CLEAR     33  32  96 CALM      30.27F

$$

COASTAL OBSERVATIONS
LAKE AND NEARSHORE STATIONS

STATION/POSITION TIME  TEMP    WIND        PRES    WAVE
                       AIR SEA DIR/SP/G            HT/PER
                 (UTC) (F)     (DEG/KT/KT) (MB)    (FT/S)
PASCAGOULA       0400   55     150/  5/  6 1024.4
WAVELAND YACHT   0400   53     190/  4/  5 1023.8
GRAND ISLE       0400   60 59  150/  4/  8 1025.1
SOUTHWEST PASS   0400   61                 1025.1
NEW CANAL        0400   50 54  140/  5/  7 1024.9
SHELL BEACH      0400   52 53  140/  4/  5 1024.7

OFFSHORE STATIONS

STATION/POSITION TIME  TEMP    WIND        PRES    WAVE
                       AIR SEA DIR/SP/G            HT/PER
                 (UTC) (F)     (DEG/KT/KT) (MB)    (FT/S)
64 S DAUPHIN ISL 0352   61 70  120/ 10/ 12 1025.6    2/ 5

$$




USA.gov is the U.S. government's official web portal to all federal, state and local government web resources and services.